Time,TemperatureF,DewpointF,PressureIn,WindDirection,WindDirectionDegrees,WindSpeedMPH,WindSpeedGustMPH,Humidity,HourlyPrecipIn,Conditions,Clouds,dailyrainin,SolarRadiationWatts/m^2,SoftwareType,DateUTC
2013-06-15 00:01:00,63.1,56.8,29.93,WNW,286,1.2,1.2,80,0.00,RA,,0.00,0.0,WeatherDisplay:10.37,2013-06-15 04:01:00,
2013-06-15 00:02:00,63.0,56.7,29.93,WNW,286,2.3,2.3,80,0.00,RA,,0.00,0.0,WeatherDisplay:10.37,2013-06-15 04:02:00,
2013-06-15 00:07:00,62.7,56.8,29.94,WNW,286,1.2,0.0,81,0.00,RA,,0.00,0.0,WeatherDisplay:10.37,2013-06-15 04:07:00,
2013-06-15 00:12:00,62.4,56.1,29.94,WNW,286,1.2,1.2,80,0.00,RA,,0.00,0.0,WeatherDisplay:10.37,2013-06-15 04:12:00,
2013-06-15 00:17:00,62.2,56.0,29.94,West,281,1.2,1.2,80,0.00,RA,,0.00,0.0,WeatherDisplay:10.37,2013-06-15 04:17:00,
2013-06-15 00:22:00,62.0,56.1,29.94,West,281,0.0,0.0,81,0.00,RA,,0.00,0.0,WeatherDisplay:10.37,2013-06-15 04:22:00,
2013-06-15 00:27:00,62.0,56.1,29.94,WNW,298,2.3,2.3,81,0.00,RA,,0.00,0.0,WeatherDisplay:10.37,2013-06-15 04:27:00,
2013-06-15 00:32:00,61.8,55.9,29.94,WNW,298,3.5,3.5,81,0.00,RA,,0.00,0.0,WeatherDisplay:10.37,2013-06-15 04:32:00,
2013-06-15 00:37:00,61.6,55.7,29.94,WNW,297,3.5,3.6,81,0.00,RA,,0.00,0.0,WeatherDisplay:10.37,2013-06-15 04:37:00,
2013-06-15 00:42:00,62.0,56.1,29.94,WNW,294,4.6,4.6,81,0.00,RA,,0.00,0.0,WeatherDisplay:10.37,2013-06-15 04:42:00,
2013-06-15 00:47:00,62.7,56.1,29.94,WNW,303,5.0,5.0,79,0.00,RA,,0.00,0.0,WeatherDisplay:10.37,2013-06-15 04:47:00,
2013-06-15 00:52:00,63.4,56.1,29.94,NW,307,3.5,3.5,77,0.00,RA,,0.00,0.0,WeatherDisplay:10.37,2013-06-15 04:52:00,
2013-06-15 00:57:00,63.8,56.1,29.95,NW,307,3.5,3.5,76,0.00,RA,,0.00,0.0,WeatherDisplay:10.37,2013-06-15 04:57:00,
2013-06-15 01:02:00,64.0,55.9,29.95,NW,307,0.0,0.0,75,0.00,CLR,,0.00,0.0,WeatherDisplay:10.37,2013-06-15 05:02:00,
2013-06-15 01:07:00,63.9,56.5,29.95,NW,307,0.0,0.0,77,0.00,CLR,,0.00,0.0,WeatherDisplay:10.37,2013-06-15 05:07:00,
2013-06-15 01:12:00,63.5,56.5,29.95,NW,307,0.0,0.0,78,0.00,CLR,,0.00,0.0,WeatherDisplay:10.37,2013-06-15 05:12:00,
2013-06-15 01:17:00,63.0,56.4,29.94,NW,307,0.0,0.0,79,0.00,CLR,,0.00,0.0,WeatherDisplay:10.37,2013-06-15 05:17:00,
2013-06-15 01:22:00,62.5,55.9,29.94,NW,307,1.0,1.0,79,0.00,CLR,,0.00,0.0,WeatherDisplay:10.37,2013-06-15 05:22:00,
2013-06-15 01:27:00,62.2,55.6,29.94,NW,307,2.3,2.3,79,0.00,CLR,,0.00,0.0,WeatherDisplay:10.37,2013-06-15 05:27:00,
2013-06-15 01:32:00,62.0,55.8,29.95,NW,306,2.3,2.3,80,0.00,CLR,,0.00,0.0,WeatherDisplay:10.37,2013-06-15 05:32:00,
2013-06-15 01:37:00,61.9,55.7,29.95,NW,306,2.3,2.3,80,0.00,CLR,,0.00,0.0,WeatherDisplay:10.37,2013-06-15 05:37:00,
2013-06-15 01:42:00,62.0,55.8,29.95,NW,306,3.5,3.5,80,0.00,CLR,,0.00,0.0,WeatherDisplay:10.37,2013-06-15 05:42:00,
2013-06-15 01:47:00,62.3,56.0,29.95,NW,306,3.5,3.5,80,0.00,CLR,,0.00,0.0,WeatherDisplay:10.37,2013-06-15 05:47:00,
2013-06-15 01:52:00,62.5,55.9,29.95,NW,306,3.5,3.5,79,0.00,CLR,,0.00,0.0,WeatherDisplay:10.37,2013-06-15 05:52:00,
2013-06-15 01:57:00,62.6,56.0,29.95,NW,306,3.5,3.5,79,0.00,CLR,,0.00,0.0,WeatherDisplay:10.37,2013-06-15 05:57:00,
2013-06-15 02:02:00,62.8,55.8,29.95,NW,307,2.3,2.3,78,0.00,CLR,,0.00,0.0,WeatherDisplay:10.37,2013-06-15 06:02:00,
2013-06-15 02:07:00,63.0,56.0,29.95,NW,306,2.3,2.3,78,0.00,CLR,,0.00,0.0,WeatherDisplay:10.37,2013-06-15 06:07:00,
2013-06-15 02:12:00,63.0,56.4,29.95,NW,307,1.2,1.2,79,0.00,CLR,,0.00,0.0,WeatherDisplay:10.37,2013-06-15 06:12:00,
2013-06-15 02:17:00,62.8,56.9,29.95,NW,307,0.0,0.0,81,0.00,CLR,,0.00,0.0,WeatherDisplay:10.37,2013-06-15 06:17:00,
2013-06-15 02:22:00,62.4,56.5,29.95,NW,306,0.0,0.0,81,0.00,CLR,,0.00,0.0,WeatherDisplay:10.37,2013-06-15 06:22:00,
2013-06-15 02:27:00,61.9,56.0,29.95,NW,306,0.0,0.0,81,0.00,CLR,,0.00,0.0,WeatherDisplay:10.37,2013-06-15 06:27:00,
2013-06-15 02:32:00,61.4,55.9,29.95,NW,306,1.2,0.0,82,0.00,CLR,,0.00,0.0,WeatherDisplay:10.37,2013-06-15 06:32:00,
2013-06-15 02:37:00,61.1,55.9,29.95,NW,307,2.3,2.3,83,0.00,CLR,,0.00,0.0,WeatherDisplay:10.37,2013-06-15 06:37:00,
2013-06-15 02:42:00,61.1,55.9,29.95,NW,306,4.0,4.0,83,0.00,CLR,,0.00,0.0,WeatherDisplay:10.37,2013-06-15 06:42:00,
2013-06-15 02:47:00,61.5,56.0,29.95,NW,306,3.5,3.5,82,0.00,CLR,,0.00,0.0,WeatherDisplay:10.37,2013-06-15 06:47:00,
2013-06-15 02:52:00,61.8,56.2,29.96,NW,304,4.6,4.6,82,0.00,CLR,,0.00,0.0,WeatherDisplay:10.37,2013-06-15 06:52:00,
2013-06-15 02:57:00,61.9,56.3,29.96,WNW,301,5.0,5.0,82,0.00,CLR,,0.00,0.0,WeatherDisplay:10.37,2013-06-15 06:57:00,
2013-06-15 03:02:00,61.9,56.3,29.96,WNW,303,5.0,5.0,82,0.00,CLR,,0.00,0.0,WeatherDisplay:10.37,2013-06-15 07:02:00,
2013-06-15 03:07:00,61.8,56.2,29.96,NW,309,3.5,3.5,82,0.00,CLR,,0.00,0.0,WeatherDisplay:10.37,2013-06-15 07:07:00,
2013-06-15 03:12:00,61.9,56.0,29.96,NW,309,4.6,4.6,81,0.00,CLR,,0.00,0.0,WeatherDisplay:10.37,2013-06-15 07:12:00,
2013-06-15 03:17:00,61.8,55.9,29.96,NW,309,3.5,3.5,81,0.00,CLR,,0.00,0.0,WeatherDisplay:10.37,2013-06-15 07:17:00,
2013-06-15 03:22:00,61.7,55.8,29.96,NW,309,3.5,3.5,81,0.00,CLR,,0.00,0.0,WeatherDisplay:10.37,2013-06-15 07:22:00,
2013-06-15 03:27:00,61.4,55.9,29.95,NW,309,1.2,1.2,82,0.00,CLR,,0.00,0.0,WeatherDisplay:10.37,2013-06-15 07:27:00,
2013-06-15 03:32:00,61.2,55.7,29.95,NW,309,0.0,0.0,82,0.00,CLR,,0.00,0.0,WeatherDisplay:10.37,2013-06-15 07:32:00,
2013-06-15 03:37:00,60.9,55.7,29.95,NW,309,0.0,0.0,83,0.00,CLR,,0.00,0.0,WeatherDisplay:10.37,2013-06-15 07:37:00,
2013-06-15 03:42:00,60.5,55.6,29.95,NW,309,0.0,0.0,84,0.00,CLR,,0.00,0.0,WeatherDisplay:10.37,2013-06-15 07:42:00,
2013-06-15 03:47:00,60.0,55.5,29.95,NW,309,0.0,0.0,85,0.00,CLR,,0.00,0.0,WeatherDisplay:10.37,2013-06-15 07:47:00,
2013-06-15 03:52:00,59.5,55.3,29.94,NW,309,0.0,0.0,86,0.00,CLR,,0.00,0.0,WeatherDisplay:10.37,2013-06-15 07:52:00,
2013-06-15 03:57:00,59.1,55.2,29.94,NW,309,0.0,0.0,87,0.00,CLR,,0.00,0.0,WeatherDisplay:10.37,2013-06-15 07:57:00,
2013-06-15 04:02:00,58.9,55.0,29.94,NW,309,0.0,0.0,87,0.00,CLR,,0.00,0.0,WeatherDisplay:10.37,2013-06-15 08:02:00,
2013-06-15 04:07:00,58.6,55.1,29.95,NW,309,2.3,2.3,88,0.00,CLR,,0.00,0.0,WeatherDisplay:10.37,2013-06-15 08:07:00,
2013-06-15 04:12:00,58.2,54.7,29.95,NW,309,0.0,0.0,88,0.00,CLR,,0.00,0.0,WeatherDisplay:10.37,2013-06-15 08:12:00,
2013-06-15 04:17:00,58.0,54.8,29.95,NW,309,1.2,0.0,89,0.00,CLR,,0.00,0.0,WeatherDisplay:10.37,2013-06-15 08:17:00,
2013-06-15 04:22:00,57.8,54.6,29.95,NW,309,0.0,0.0,89,0.00,CLR,,0.00,0.0,WeatherDisplay:10.37,2013-06-15 08:22:00,
2013-06-15 04:27:00,57.7,54.8,29.95,NW,309,0.0,0.0,90,0.00,CLR,,0.00,0.0,WeatherDisplay:10.37,2013-06-15 08:27:00,
2013-06-15 04:32:00,57.6,54.7,29.95,NW,309,0.0,0.0,90,0.00,CLR,,0.00,0.0,WeatherDisplay:10.37,2013-06-15 08:32:00,
2013-06-15 04:37:00,57.5,54.9,29.95,NW,309,1.2,1.2,91,0.00,CLR,,0.00,0.0,WeatherDisplay:10.37,2013-06-15 08:37:00,
2013-06-15 04:42:00,57.4,54.8,29.95,NW,309,0.0,0.0,91,0.00,CLR,,0.00,0.0,WeatherDisplay:10.37,2013-06-15 08:42:00,
2013-06-15 04:47:00,57.2,54.6,29.95,NW,309,0.0,0.0,91,0.00,CLR,,0.00,0.0,WeatherDisplay:10.37,2013-06-15 08:47:00,
2013-06-15 04:52:00,57.1,54.5,29.95,NW,309,0.0,0.0,91,0.00,CLR,,0.00,0.0,WeatherDisplay:10.37,2013-06-15 08:52:00,
2013-06-15 04:57:00,56.9,54.6,29.95,NW,309,0.0,0.0,92,0.00,CLR,,0.00,0.0,WeatherDisplay:10.37,2013-06-15 08:57:00,
2013-06-15 05:02:00,56.8,54.5,29.96,NW,309,0.0,0.0,92,0.00,CLR,,0.00,0.0,WeatherDisplay:10.37,2013-06-15 09:02:00,
2013-06-15 05:07:00,56.7,54.4,29.96,WSW,242,0.0,0.0,92,0.00,CLR,,0.00,0.0,WeatherDisplay:10.37,2013-06-15 09:07:00,
2013-06-15 05:12:00,56.7,54.4,29.96,WSW,242,0.0,0.0,92,0.00,CLR,,0.00,0.0,WeatherDisplay:10.37,2013-06-15 09:12:00,
2013-06-15 05:17:00,56.6,54.3,29.96,WSW,242,0.0,0.0,92,0.00,CLR,,0.00,0.0,WeatherDisplay:10.37,2013-06-15 09:17:00,
2013-06-15 05:22:00,56.4,54.4,29.96,WSW,242,0.0,0.0,93,0.00,CLR,,0.00,0.0,WeatherDisplay:10.37,2013-06-15 09:22:00,
2013-06-15 05:27:00,56.4,54.4,29.96,WSW,242,0.0,0.0,93,0.00,CLR,,0.00,0.0,WeatherDisplay:10.37,2013-06-15 09:27:00,
2013-06-15 05:32:00,56.2,54.2,29.97,West,260,0.0,0.0,93,0.00,CLR,,0.00,0.0,WeatherDisplay:10.37,2013-06-15 09:32:00,
2013-06-15 05:37:00,56.2,54.2,29.97,West,260,1.2,0.0,93,0.00,CLR,,0.00,0.0,WeatherDisplay:10.37,2013-06-15 09:37:00,
2013-06-15 05:42:00,56.1,54.1,29.97,West,260,0.0,0.0,93,0.00,CLR,,0.00,7.0,WeatherDisplay:10.37,2013-06-15 09:42:00,
2013-06-15 05:47:00,56.0,54.0,29.97,West,260,0.0,0.0,93,0.00,CLR,,0.00,11.0,WeatherDisplay:10.37,2013-06-15 09:47:00,
2013-06-15 05:52:00,55.9,53.9,29.97,West,260,0.0,0.0,93,0.00,CLR,,0.00,14.0,WeatherDisplay:10.37,2013-06-15 09:52:00,
2013-06-15 05:57:00,56.0,54.3,29.98,West,260,0.0,0.0,94,0.00,CLR,,0.00,18.0,WeatherDisplay:10.37,2013-06-15 09:57:00,
2013-06-15 06:02:00,56.1,54.4,29.98,West,260,0.0,0.0,94,0.00,CLR,,0.00,19.0,WeatherDisplay:10.37,2013-06-15 10:02:00,
2013-06-15 06:07:00,56.2,54.5,29.98,WSW,238,0.0,0.0,94,0.00,CLR,,0.00,25.0,WeatherDisplay:10.37,2013-06-15 10:07:00,
2013-06-15 06:12:00,56.3,54.6,29.99,WSW,238,0.0,0.0,94,0.00,CLR,,0.00,33.0,WeatherDisplay:10.37,2013-06-15 10:12:00,
2013-06-15 06:17:00,56.6,55.2,29.99,WSW,238,0.0,0.0,95,0.00,CLR,,0.00,39.0,WeatherDisplay:10.37,2013-06-15 10:17:00,
2013-06-15 06:22:00,57.0,55.3,29.99,WSW,238,0.0,0.0,94,0.00,CLR,,0.00,49.0,WeatherDisplay:10.37,2013-06-15 10:22:00,
2013-06-15 06:27:00,57.3,55.6,29.99,WSW,238,0.0,0.0,94,0.00,CLR,,0.00,95.0,WeatherDisplay:10.37,2013-06-15 10:27:00,
2013-06-15 06:32:00,57.7,56.0,29.99,WSW,238,0.0,0.0,94,0.00,CLR,,0.00,107.0,WeatherDisplay:10.37,2013-06-15 10:32:00,
2013-06-15 06:37:00,58.2,56.2,29.99,WSW,238,0.0,0.0,93,0.00,CLR,,0.00,118.0,WeatherDisplay:10.37,2013-06-15 10:37:00,
2013-06-15 06:42:00,58.8,56.8,30.00,WSW,238,0.0,0.0,93,0.00,CLR,,0.00,132.0,WeatherDisplay:10.37,2013-06-15 10:42:00,
2013-06-15 06:47:00,59.3,56.7,30.00,SSW,213,3.5,3.5,91,0.00,CLR,,0.00,142.0,WeatherDisplay:10.37,2013-06-15 10:47:00,
2013-06-15 06:52:00,59.7,57.1,30.00,SSW,208,1.2,1.2,91,0.00,CLR,,0.00,155.0,WeatherDisplay:10.37,2013-06-15 10:52:00,
2013-06-15 06:57:00,60.0,57.1,30.00,SSW,196,3.5,3.5,90,0.00,CLR,,0.00,163.0,WeatherDisplay:10.37,2013-06-15 10:57:00,
2013-06-15 07:02:00,60.2,57.6,30.00,SSW,196,3.5,3.5,91,0.00,CLR,,0.00,174.0,WeatherDisplay:10.37,2013-06-15 11:02:00,
2013-06-15 07:07:00,60.3,57.7,30.00,SSW,196,2.3,2.3,91,0.00,CLR,,0.00,188.0,WeatherDisplay:10.37,2013-06-15 11:07:00,
2013-06-15 07:12:00,60.5,57.9,30.00,SSW,196,2.3,2.3,91,0.00,CLR,,0.00,202.0,WeatherDisplay:10.37,2013-06-15 11:12:00,
2013-06-15 07:17:00,60.8,57.8,30.01,SSW,196,3.5,3.5,90,0.00,CLR,,0.00,214.0,WeatherDisplay:10.37,2013-06-15 11:17:00,
2013-06-15 07:22:00,61.1,58.5,30.01,SSW,196,3.5,3.5,91,0.00,CLR,,0.00,229.0,WeatherDisplay:10.37,2013-06-15 11:22:00,
2013-06-15 07:27:00,61.5,58.5,30.01,SSW,196,3.5,3.5,90,0.00,CLR,,0.00,244.0,WeatherDisplay:10.37,2013-06-15 11:27:00,
2013-06-15 07:32:00,62.0,59.0,30.01,SSW,196,3.5,3.5,90,0.00,CLR,,0.00,260.0,WeatherDisplay:10.37,2013-06-15 11:32:00,
2013-06-15 07:37:00,62.5,59.2,30.01,SSW,196,3.5,3.5,89,0.00,CLR,,0.00,276.0,WeatherDisplay:10.37,2013-06-15 11:37:00,
2013-06-15 07:42:00,63.1,59.5,30.02,SSW,196,2.3,2.3,88,0.00,CLR,,0.00,292.0,WeatherDisplay:10.37,2013-06-15 11:42:00,
2013-06-15 07:47:00,63.8,59.9,30.02,West,277,3.5,3.5,87,0.00,CLR,,0.00,304.0,WeatherDisplay:10.37,2013-06-15 11:47:00,
2013-06-15 07:52:00,64.5,58.2,30.02,NW,311,6.0,6.0,80,0.00,CLR,,0.00,322.0,WeatherDisplay:10.37,2013-06-15 11:52:00,
2013-06-15 07:57:00,64.9,57.9,30.02,NW,306,4.6,4.6,78,0.00,CLR,,0.00,338.0,WeatherDisplay:10.37,2013-06-15 11:57:00,
2013-06-15 08:02:00,65.2,58.5,30.03,WNW,288,4.6,4.6,79,0.00,CLR,,0.00,352.0,WeatherDisplay:10.37,2013-06-15 12:02:00,
2013-06-15 08:07:00,65.5,58.5,30.02,NW,313,6.9,6.9,78,0.00,CLR,,0.00,367.0,WeatherDisplay:10.37,2013-06-15 12:07:00,
2013-06-15 08:12:00,65.8,58.7,30.03,West,266,5.8,5.8,78,0.00,CLR,,0.00,383.0,WeatherDisplay:10.37,2013-06-15 12:12:00,
2013-06-15 08:17:00,66.3,58.9,30.03,WNW,300,5.0,5.0,77,0.00,CLR,,0.00,399.0,WeatherDisplay:10.37,2013-06-15 12:17:00,
2013-06-15 08:22:00,66.7,58.9,30.03,NW,304,5.8,5.8,76,0.00,CLR,,0.00,415.0,WeatherDisplay:10.37,2013-06-15 12:22:00,
2013-06-15 08:27:00,66.9,59.1,30.03,WNW,283,3.5,3.5,76,0.00,CLR,,0.00,427.0,WeatherDisplay:10.37,2013-06-15 12:27:00,
2013-06-15 08:32:00,67.3,59.5,30.03,West,265,3.5,3.5,76,0.00,CLR,,0.00,445.0,WeatherDisplay:10.37,2013-06-15 12:32:00,
2013-06-15 08:37:00,67.7,59.9,30.03,West,277,3.5,3.5,76,0.00,CLR,,0.00,461.0,WeatherDisplay:10.37,2013-06-15 12:37:00,
2013-06-15 08:42:00,68.1,59.9,30.04,WNW,299,3.5,3.5,75,0.00,CLR,,0.00,475.0,WeatherDisplay:10.37,2013-06-15 12:42:00,
2013-06-15 08:47:00,68.5,59.9,30.03,NW,318,6.9,6.9,74,0.00,CLR,,0.00,492.0,WeatherDisplay:10.37,2013-06-15 12:47:00,
2013-06-15 08:52:00,68.6,59.6,30.04,WNW,284,5.8,5.8,73,0.00,CLR,,0.00,506.0,WeatherDisplay:10.37,2013-06-15 12:52:00,
2013-06-15 08:57:00,68.7,59.7,30.04,WNW,302,4.6,4.6,73,0.00,CLR,,0.00,519.0,WeatherDisplay:10.37,2013-06-15 12:57:00,
2013-06-15 09:02:00,68.9,59.9,30.04,West,281,4.6,4.6,73,0.00,CLR,,0.00,534.0,WeatherDisplay:10.37,2013-06-15 13:02:00,
2013-06-15 09:07:00,69.3,59.9,30.04,West,270,4.6,4.6,72,0.00,CLR,,0.00,547.0,WeatherDisplay:10.37,2013-06-15 13:07:00,
2013-06-15 09:12:00,69.6,60.6,30.04,WNW,294,5.8,5.8,73,0.00,CLR,,0.00,563.0,WeatherDisplay:10.37,2013-06-15 13:12:00,
2013-06-15 09:17:00,69.8,60.8,30.04,NW,309,7.0,7.0,73,0.00,CLR,,0.00,575.0,WeatherDisplay:10.37,2013-06-15 13:17:00,
2013-06-15 09:22:00,69.8,60.4,30.03,West,277,5.8,5.8,72,0.00,CLR,,0.00,591.0,WeatherDisplay:10.37,2013-06-15 13:22:00,
2013-06-15 09:27:00,70.0,60.2,30.03,WNW,290,5.8,5.8,71,0.00,CLR,,0.00,606.0,WeatherDisplay:10.37,2013-06-15 13:27:00,
2013-06-15 09:32:00,70.2,61.5,30.04,West,262,3.5,3.5,74,0.00,CLR,,0.00,619.0,WeatherDisplay:10.37,2013-06-15 13:32:00,
2013-06-15 09:37:00,70.6,61.1,30.04,WNW,297,3.5,3.5,72,0.00,CLR,,0.00,638.0,WeatherDisplay:10.37,2013-06-15 13:37:00,
2013-06-15 09:42:00,71.1,61.2,30.04,West,271,3.5,3.5,71,0.00,CLR,,0.00,647.0,WeatherDisplay:10.37,2013-06-15 13:42:00,
2013-06-15 09:47:00,71.4,61.5,30.04,NW,309,6.9,6.9,71,0.00,CLR,,0.00,657.0,WeatherDisplay:10.37,2013-06-15 13:47:00,
2013-06-15 09:52:00,71.5,61.2,30.03,NW,306,9.2,9.2,70,0.00,CLR,,0.00,673.0,WeatherDisplay:10.37,2013-06-15 13:52:00,
2013-06-15 09:57:00,71.5,61.2,30.03,WNW,293,5.8,5.8,70,0.00,CLR,,0.00,689.0,WeatherDisplay:10.37,2013-06-15 13:57:00,
2013-06-15 10:02:00,71.7,60.6,30.04,West,267,2.3,2.3,68,0.00,CLR,,0.00,700.0,WeatherDisplay:10.37,2013-06-15 14:02:00,
2013-06-15 10:07:00,72.0,61.7,30.03,NW,305,6.9,6.9,70,0.00,CLR,,0.00,714.0,WeatherDisplay:10.37,2013-06-15 14:07:00,
2013-06-15 10:12:00,72.7,60.3,30.03,West,265,5.8,5.8,65,0.00,CLR,,0.00,726.0,WeatherDisplay:10.37,2013-06-15 14:12:00,
2013-06-15 10:17:00,72.5,60.9,30.03,WSW,252,3.5,3.5,67,0.00,CLR,,0.00,738.0,WeatherDisplay:10.37,2013-06-15 14:17:00,
2013-06-15 10:22:00,72.6,62.7,30.02,NW,306,8.1,8.1,71,0.00,CLR,,0.00,751.0,WeatherDisplay:10.37,2013-06-15 14:22:00,
2013-06-15 10:27:00,72.8,61.6,30.03,NW,304,10.4,10.4,68,0.00,CLR,,0.00,765.0,WeatherDisplay:10.37,2013-06-15 14:27:00,
2013-06-15 10:32:00,73.0,61.0,30.02,West,266,3.5,3.5,66,0.00,CLR,,0.00,795.0,WeatherDisplay:10.37,2013-06-15 14:32:00,
2013-06-15 10:37:00,73.0,61.4,30.02,NW,323,3.5,3.5,67,0.00,CLR,,0.00,779.0,WeatherDisplay:10.37,2013-06-15 14:37:00,
2013-06-15 10:42:00,73.6,62.4,30.02,NNW,331,6.9,6.9,68,0.00,CLR,,0.00,812.0,WeatherDisplay:10.37,2013-06-15 14:42:00,
2013-06-15 10:47:00,73.5,61.0,30.02,NW,319,3.5,3.5,65,0.00,CLR,,0.00,810.0,WeatherDisplay:10.37,2013-06-15 14:47:00,
2013-06-15 10:52:00,73.8,61.3,30.02,West,262,3.5,3.5,65,0.00,CLR,,0.00,835.0,WeatherDisplay:10.37,2013-06-15 14:52:00,
2013-06-15 10:57:00,73.7,61.6,30.02,NW,309,11.5,11.5,66,0.00,CLR,,0.00,847.0,WeatherDisplay:10.37,2013-06-15 14:57:00,
2013-06-15 11:02:00,73.4,61.3,30.02,NW,326,2.3,2.3,66,0.00,CLR,,0.00,842.0,WeatherDisplay:10.37,2013-06-15 15:02:00,
2013-06-15 11:07:00,73.4,60.9,30.02,NW,321,3.5,3.5,65,0.00,CLR,,0.00,867.0,WeatherDisplay:10.37,2013-06-15 15:07:00,
2013-06-15 11:12:00,73.6,60.7,30.02,SSW,208,3.5,3.5,64,0.00,CLR,,0.00,221.0,WeatherDisplay:10.37,2013-06-15 15:12:00,
2013-06-15 11:17:00,74.2,65.4,30.02,WNW,297,2.3,2.3,74,0.00,CLR,,0.00,868.0,WeatherDisplay:10.37,2013-06-15 15:17:00,
2013-06-15 11:22:00,74.8,60.9,30.02,WNW,291,4.6,4.6,62,0.00,CLR,,0.00,891.0,WeatherDisplay:10.37,2013-06-15 15:22:00,
2013-06-15 11:27:00,74.6,60.3,30.02,NW,307,6.9,6.9,61,0.00,CLR,,0.00,884.0,WeatherDisplay:10.37,2013-06-15 15:27:00,
2013-06-15 11:32:00,75.1,61.6,30.02,West,275,5.8,5.8,63,0.00,CLR,,0.00,891.0,WeatherDisplay:10.37,2013-06-15 15:32:00,
2013-06-15 11:37:00,75.0,61.1,30.02,West,281,4.0,4.0,62,0.00,CLR,,0.00,896.0,WeatherDisplay:10.37,2013-06-15 15:37:00,
2013-06-15 11:42:00,75.0,61.5,30.02,WNW,288,9.2,9.2,63,0.00,CLR,,0.00,921.0,WeatherDisplay:10.37,2013-06-15 15:42:00,
2013-06-15 11:47:00,75.7,61.8,30.02,NW,311,11.5,11.5,62,0.00,CLR,,0.00,942.0,WeatherDisplay:10.37,2013-06-15 15:47:00,
2013-06-15 11:52:00,75.6,60.3,30.02,NW,317,8.0,8.0,59,0.00,CLR,,0.00,918.0,WeatherDisplay:10.37,2013-06-15 15:52:00,
2013-06-15 11:57:00,75.8,61.4,30.02,WNW,298,8.1,8.1,61,0.00,CLR,,0.00,921.0,WeatherDisplay:10.37,2013-06-15 15:57:00,
2013-06-15 12:02:00,75.9,61.9,30.02,WNW,300,3.5,3.5,62,0.00,SCT,,0.00,953.0,WeatherDisplay:10.37,2013-06-15 16:02:00,
2013-06-15 12:07:00,75.9,60.1,30.02,NW,307,8.1,8.1,58,0.00,SCT,,0.00,255.0,WeatherDisplay:10.37,2013-06-15 16:07:00,
2013-06-15 12:12:00,75.5,60.6,30.02,NW,318,13.0,13.0,60,0.00,SCT,,0.00,983.0,WeatherDisplay:10.37,2013-06-15 16:12:00,
2013-06-15 12:17:00,76.2,59.4,30.02,WNW,292,6.0,6.0,56,0.00,SCT,,0.00,1016.0,WeatherDisplay:10.37,2013-06-15 16:17:00,
2013-06-15 12:22:00,76.5,62.5,30.02,NW,320,8.1,8.1,62,0.00,SCT,,0.00,1039.0,WeatherDisplay:10.37,2013-06-15 16:22:00,
2013-06-15 12:27:00,76.6,60.2,30.02,WNW,300,9.2,9.2,57,0.00,SCT,,0.00,287.0,WeatherDisplay:10.37,2013-06-15 16:27:00,
2013-06-15 12:32:00,75.4,60.1,30.02,NW,319,5.8,5.8,59,0.00,SCT,,0.00,271.0,WeatherDisplay:10.37,2013-06-15 16:32:00,
2013-06-15 12:37:00,75.5,60.2,30.02,NNW,327,9.0,9.0,59,0.00,SCT,,0.00,290.0,WeatherDisplay:10.37,2013-06-15 16:37:00,
2013-06-15 12:42:00,75.4,61.0,30.01,NW,314,6.0,6.0,61,0.00,SCT,,0.00,953.0,WeatherDisplay:10.37,2013-06-15 16:42:00,
2013-06-15 12:47:00,75.6,59.3,30.01,NW,325,12.7,12.7,57,0.00,SCT,,0.00,279.0,WeatherDisplay:10.37,2013-06-15 16:47:00,
2013-06-15 12:52:00,75.1,59.8,30.01,NW,304,9.2,9.2,59,0.00,SCT,,0.00,250.0,WeatherDisplay:10.37,2013-06-15 16:52:00,
2013-06-15 12:57:00,76.4,61.0,30.01,West,275,3.5,3.5,59,0.00,SCT,,0.00,1062.0,WeatherDisplay:10.37,2013-06-15 16:57:00,
2013-06-15 13:02:00,77.0,60.1,30.00,West,277,11.5,11.5,56,0.00,SCT,,0.00,1123.0,WeatherDisplay:10.37,2013-06-15 17:02:00,
2013-06-15 13:07:00,77.3,61.4,30.00,NW,314,10.0,10.0,58,0.00,SCT,,0.00,1099.0,WeatherDisplay:10.37,2013-06-15 17:07:00,
2013-06-15 13:12:00,77.1,61.2,30.00,WNW,289,9.2,9.2,58,0.00,SCT,,0.00,1053.0,WeatherDisplay:10.37,2013-06-15 17:12:00,
2013-06-15 13:17:00,76.3,59.4,30.00,West,279,4.6,4.6,56,0.00,SCT,,0.00,257.0,WeatherDisplay:10.37,2013-06-15 17:17:00,
2013-06-15 13:22:00,76.2,60.8,30.00,WNW,302,9.2,9.2,59,0.00,SCT,,0.00,193.0,WeatherDisplay:10.37,2013-06-15 17:22:00,
2013-06-15 13:27:00,77.3,59.4,29.99,SW,232,5.8,5.8,54,0.00,SCT,,0.00,1099.0,WeatherDisplay:10.37,2013-06-15 17:27:00,
2013-06-15 13:32:00,77.6,60.2,30.00,NW,307,8.1,8.1,55,0.00,SCT,,0.00,1046.0,WeatherDisplay:10.37,2013-06-15 17:32:00,
2013-06-15 13:37:00,78.2,59.1,30.00,West,268,8.1,8.1,52,0.00,SCT,,0.00,979.0,WeatherDisplay:10.37,2013-06-15 17:37:00,
2013-06-15 13:42:00,78.2,61.2,29.99,NW,306,11.0,11.0,56,0.00,SCT,,0.00,1011.0,WeatherDisplay:10.37,2013-06-15 17:42:00,
2013-06-15 13:47:00,77.3,58.8,29.99,WSW,258,11.5,11.5,53,0.00,SCT,,0.00,1041.0,WeatherDisplay:10.37,2013-06-15 17:47:00,
2013-06-15 13:52:00,77.8,58.8,29.99,NW,317,10.4,10.4,52,0.00,SCT,,0.00,1034.0,WeatherDisplay:10.37,2013-06-15 17:52:00,
2013-06-15 13:57:00,78.4,59.3,29.99,WNW,286,6.0,6.0,52,0.00,SCT,,0.00,977.0,WeatherDisplay:10.37,2013-06-15 17:57:00,
2013-06-15 14:02:00,78.5,59.9,29.99,WNW,297,12.7,12.7,53,0.00,FEW,,0.00,925.0,WeatherDisplay:10.37,2013-06-15 18:02:00,
2013-06-15 14:07:00,77.7,59.7,29.99,NW,312,10.4,10.4,54,0.00,FEW,,0.00,243.0,WeatherDisplay:10.37,2013-06-15 18:07:00,
2013-06-15 14:12:00,76.8,58.9,29.99,WNW,302,11.5,11.5,54,0.00,FEW,,0.00,206.0,WeatherDisplay:10.37,2013-06-15 18:12:00,
2013-06-15 14:17:00,76.7,60.3,29.99,WNW,297,11.5,11.5,57,0.00,FEW,,0.00,993.0,WeatherDisplay:10.37,2013-06-15 18:17:00,
2013-06-15 14:22:00,78.4,60.9,29.98,NW,309,11.5,11.5,55,0.00,FEW,,0.00,993.0,WeatherDisplay:10.37,2013-06-15 18:22:00,
2013-06-15 14:27:00,78.2,59.1,29.99,West,277,9.2,9.2,52,0.00,FEW,,0.00,969.0,WeatherDisplay:10.37,2013-06-15 18:27:00,
2013-06-15 14:32:00,77.5,57.4,29.99,WNW,303,10.0,10.0,50,0.00,FEW,,0.00,171.0,WeatherDisplay:10.37,2013-06-15 18:32:00,
2013-06-15 14:37:00,77.2,58.7,29.98,WNW,298,5.8,5.8,53,0.00,FEW,,0.00,991.0,WeatherDisplay:10.37,2013-06-15 18:37:00,
2013-06-15 14:42:00,78.1,60.6,29.98,NW,314,8.0,8.0,55,0.00,FEW,,0.00,995.0,WeatherDisplay:10.37,2013-06-15 18:42:00,
2013-06-15 14:47:00,78.0,59.5,29.98,WNW,300,8.1,8.1,53,0.00,FEW,,0.00,909.0,WeatherDisplay:10.37,2013-06-15 18:47:00,
2013-06-15 14:52:00,78.5,59.9,29.98,WNW,302,9.2,9.2,53,0.00,FEW,,0.00,963.0,WeatherDisplay:10.37,2013-06-15 18:52:00,
2013-06-15 14:57:00,78.7,61.2,29.98,NNW,327,6.9,6.9,55,0.00,FEW,,0.00,953.0,WeatherDisplay:10.37,2013-06-15 18:57:00,
2013-06-15 15:02:00,78.9,58.7,29.98,West,270,11.5,11.5,50,0.00,FEW,,0.00,953.0,WeatherDisplay:10.37,2013-06-15 19:02:00,
2013-06-15 15:07:00,79.6,59.3,29.98,NW,311,6.9,6.9,50,0.00,FEW,,0.00,919.0,WeatherDisplay:10.37,2013-06-15 19:07:00,
2013-06-15 15:12:00,79.6,58.2,29.98,WNW,300,10.4,10.4,48,0.00,FEW,,0.00,916.0,WeatherDisplay:10.37,2013-06-15 19:12:00,
2013-06-15 15:17:00,79.0,58.2,29.98,NW,325,8.1,8.1,49,0.00,FEW,,0.00,192.0,WeatherDisplay:10.37,2013-06-15 19:17:00,
2013-06-15 15:22:00,78.4,60.9,29.98,NNW,327,6.9,6.9,55,0.00,FEW,,0.00,849.0,WeatherDisplay:10.37,2013-06-15 19:22:00,
2013-06-15 15:27:00,79.4,60.2,29.97,WNW,294,10.4,10.4,52,0.00,FEW,,0.00,773.0,WeatherDisplay:10.37,2013-06-15 19:27:00,
2013-06-15 15:32:00,79.3,59.0,29.97,NW,312,7.0,7.0,50,0.00,FEW,,0.00,682.0,WeatherDisplay:10.37,2013-06-15 19:32:00,
2013-06-15 15:37:00,78.9,59.2,29.97,NW,307,11.5,11.5,51,0.00,FEW,,0.00,860.0,WeatherDisplay:10.37,2013-06-15 19:37:00,
2013-06-15 15:42:00,78.9,57.5,29.97,NW,315,10.4,10.4,48,0.00,FEW,,0.00,823.0,WeatherDisplay:10.37,2013-06-15 19:42:00,
2013-06-15 15:47:00,79.5,59.8,29.97,NW,305,6.9,6.9,51,0.00,FEW,,0.00,745.0,WeatherDisplay:10.37,2013-06-15 19:47:00,
2013-06-15 15:52:00,80.1,58.6,29.97,WNW,303,8.1,8.1,48,0.00,FEW,,0.00,756.0,WeatherDisplay:10.37,2013-06-15 19:52:00,
2013-06-15 15:57:00,80.1,58.0,29.97,WSW,254,9.2,9.2,47,0.00,FEW,,0.00,803.0,WeatherDisplay:10.37,2013-06-15 19:57:00,
2013-06-15 16:02:00,78.9,56.4,29.97,West,278,5.8,5.8,46,0.00,FEW,,0.00,195.0,WeatherDisplay:10.37,2013-06-15 20:02:00,
2013-06-15 16:07:00,79.0,58.2,29.97,NW,313,12.0,12.0,49,0.00,FEW,,0.00,842.0,WeatherDisplay:10.37,2013-06-15 20:07:00,
2013-06-15 16:12:00,79.6,57.0,29.97,NW,315,14.0,14.0,46,0.00,FEW,,0.00,758.0,WeatherDisplay:10.37,2013-06-15 20:12:00,
2013-06-15 16:17:00,79.2,56.6,29.97,NW,316,11.5,11.5,46,0.00,FEW,,0.00,737.0,WeatherDisplay:10.37,2013-06-15 20:17:00,
2013-06-15 16:22:00,78.9,56.4,29.97,NW,305,9.2,9.2,46,0.00,FEW,,0.00,691.0,WeatherDisplay:10.37,2013-06-15 20:22:00,
2013-06-15 16:27:00,79.7,57.1,29.97,WNW,296,11.5,11.5,46,0.00,FEW,,0.00,779.0,WeatherDisplay:10.37,2013-06-15 20:27:00,
2013-06-15 16:32:00,79.8,55.9,29.97,WNW,302,11.5,11.5,44,0.00,FEW,,0.00,707.0,WeatherDisplay:10.37,2013-06-15 20:32:00,
2013-06-15 16:37:00,79.5,55.7,29.97,WNW,293,9.2,9.2,44,0.00,FEW,,0.00,628.0,WeatherDisplay:10.37,2013-06-15 20:37:00,
2013-06-15 16:42:00,79.6,55.8,29.97,NW,315,6.9,6.9,44,0.00,FEW,,0.00,643.0,WeatherDisplay:10.37,2013-06-15 20:42:00,
2013-06-15 16:47:00,79.5,56.3,29.97,NW,308,8.1,8.1,45,0.00,FEW,,0.00,441.0,WeatherDisplay:10.37,2013-06-15 20:47:00,
2013-06-15 16:52:00,78.9,55.1,29.97,WNW,288,12.7,12.7,44,0.00,FEW,,0.00,506.0,WeatherDisplay:10.37,2013-06-15 20:52:00,
2013-06-15 16:57:00,79.1,56.5,29.97,West,274,8.1,8.1,46,0.00,FEW,,0.00,598.0,WeatherDisplay:10.37,2013-06-15 20:57:00,
2013-06-15 17:02:00,79.7,56.5,29.97,WNW,302,7.0,7.0,45,0.00,FEW,,0.00,561.0,WeatherDisplay:10.37,2013-06-15 21:02:00,
2013-06-15 17:07:00,79.6,55.1,29.97,WNW,285,11.5,11.5,43,0.00,FEW,,0.00,538.0,WeatherDisplay:10.37,2013-06-15 21:07:00,
2013-06-15 17:12:00,79.6,55.8,29.97,WNW,302,5.8,5.8,44,0.00,FEW,,0.00,468.0,WeatherDisplay:10.37,2013-06-15 21:12:00,
2013-06-15 17:17:00,79.4,56.2,29.97,WNW,292,9.2,9.2,45,0.00,FEW,,0.00,503.0,WeatherDisplay:10.37,2013-06-15 21:17:00,
2013-06-15 17:22:00,79.1,54.7,29.97,WNW,298,8.0,8.0,43,0.00,FEW,,0.00,522.0,WeatherDisplay:10.37,2013-06-15 21:22:00,
2013-06-15 17:27:00,78.9,54.5,29.97,WNW,296,11.5,11.5,43,0.00,FEW,,0.00,506.0,WeatherDisplay:10.37,2013-06-15 21:27:00,
2013-06-15 17:32:00,78.9,53.9,29.97,WNW,291,11.5,11.5,42,0.00,FEW,,0.00,506.0,WeatherDisplay:10.37,2013-06-15 21:32:00,
2013-06-15 17:37:00,79.0,53.3,29.97,WNW,302,13.8,13.8,41,0.00,FEW,,0.00,374.0,WeatherDisplay:10.37,2013-06-15 21:37:00,
2013-06-15 17:42:00,78.7,53.7,29.97,WNW,294,6.9,6.9,42,0.00,FEW,,0.00,359.0,WeatherDisplay:10.37,2013-06-15 21:42:00,
2013-06-15 17:47:00,78.5,52.2,29.97,NW,306,6.0,6.0,40,0.00,FEW,,0.00,200.0,WeatherDisplay:10.37,2013-06-15 21:47:00,
2013-06-15 17:52:00,77.8,53.5,29.97,NNW,335,9.2,9.2,43,0.00,FEW,,0.00,193.0,WeatherDisplay:10.37,2013-06-15 21:52:00,
2013-06-15 17:57:00,77.4,52.5,29.97,WNW,302,9.2,9.2,42,0.00,FEW,,0.00,262.0,WeatherDisplay:10.37,2013-06-15 21:57:00,
2013-06-15 18:02:00,77.4,53.8,29.97,NW,311,9.2,9.2,44,0.00,FEW,,0.00,294.0,WeatherDisplay:10.37,2013-06-15 22:02:00,
2013-06-15 18:07:00,77.7,53.4,29.97,WNW,286,8.1,8.1,43,0.00,FEW,,0.00,308.0,WeatherDisplay:10.37,2013-06-15 22:07:00,
2013-06-15 18:12:00,77.8,54.1,29.97,NW,319,9.0,9.0,44,0.00,FEW,,0.00,267.0,WeatherDisplay:10.37,2013-06-15 22:12:00,
2013-06-15 18:17:00,77.6,55.2,29.97,NW,305,6.9,6.9,46,0.00,FEW,,0.00,239.0,WeatherDisplay:10.37,2013-06-15 22:17:00,
2013-06-15 18:22:00,77.3,54.9,29.97,NW,309,9.2,9.2,46,0.00,FEW,,0.00,244.0,WeatherDisplay:10.37,2013-06-15 22:22:00,
2013-06-15 18:27:00,77.6,55.2,29.97,NW,321,10.4,10.4,46,0.00,FEW,,0.00,348.0,WeatherDisplay:10.37,2013-06-15 22:27:00,
2013-06-15 18:32:00,77.9,54.8,29.97,NW,314,9.2,9.2,45,0.00,FEW,,0.00,341.0,WeatherDisplay:10.37,2013-06-15 22:32:00,
2013-06-15 18:37:00,78.0,54.9,29.97,NW,305,8.1,8.1,45,0.00,FEW,,0.00,260.0,WeatherDisplay:10.37,2013-06-15 22:37:00,
2013-06-15 18:42:00,77.8,54.1,29.97,WNW,294,8.1,8.1,44,0.00,FEW,,0.00,260.0,WeatherDisplay:10.37,2013-06-15 22:42:00,
2013-06-15 18:47:00,78.0,54.9,29.97,WNW,301,8.1,8.1,45,0.00,FEW,,0.00,308.0,WeatherDisplay:10.37,2013-06-15 22:47:00,
2013-06-15 18:52:00,78.1,55.6,29.97,WNW,302,9.2,9.2,46,0.00,FEW,,0.00,236.0,WeatherDisplay:10.37,2013-06-15 22:52:00,
2013-06-15 18:58:00,77.7,54.7,29.97,NW,311,9.2,9.2,45,0.00,FEW,,0.00,186.0,WeatherDisplay:10.37,2013-06-15 22:58:00,
2013-06-15 19:03:00,77.2,55.4,29.97,WNW,296,9.2,9.2,47,0.00,CLR,,0.00,174.0,WeatherDisplay:10.37,2013-06-15 23:03:00,
2013-06-15 19:08:00,77.0,54.6,29.97,WNW,285,7.0,7.0,46,0.00,CLR,,0.00,146.0,WeatherDisplay:10.37,2013-06-15 23:08:00,
2013-06-15 19:13:00,76.7,55.0,29.97,NW,311,10.4,10.4,47,0.00,CLR,,0.00,114.0,WeatherDisplay:10.37,2013-06-15 23:13:00,
2013-06-15 19:18:00,76.3,54.6,29.97,NW,306,5.8,5.8,47,0.00,CLR,,0.00,128.0,WeatherDisplay:10.37,2013-06-15 23:18:00,
2013-06-15 19:23:00,76.1,53.8,29.97,NW,304,6.9,6.9,46,0.00,CLR,,0.00,86.0,WeatherDisplay:10.37,2013-06-15 23:23:00,
2013-06-15 19:28:00,76.1,54.4,29.97,WNW,296,4.6,4.6,47,0.00,CLR,,0.00,86.0,WeatherDisplay:10.37,2013-06-15 23:28:00,
2013-06-15 19:33:00,76.0,54.3,29.97,NW,317,6.9,6.9,47,0.00,CLR,,0.00,69.0,WeatherDisplay:10.37,2013-06-15 23:33:00,
2013-06-15 19:38:00,75.8,54.7,29.97,WNW,293,5.8,5.8,48,0.00,CLR,,0.00,53.0,WeatherDisplay:10.37,2013-06-15 23:38:00,
2013-06-15 19:43:00,75.6,54.5,29.97,NW,315,6.0,6.0,48,0.00,CLR,,0.00,40.0,WeatherDisplay:10.37,2013-06-15 23:43:00,
2013-06-15 19:48:00,75.4,54.3,29.98,WNW,293,6.9,6.9,48,0.00,CLR,,0.00,40.0,WeatherDisplay:10.37,2013-06-15 23:48:00,
2013-06-15 19:53:00,75.2,54.7,29.98,NW,309,6.9,6.9,49,0.00,CLR,,0.00,37.0,WeatherDisplay:10.37,2013-06-15 23:53:00,
2013-06-15 19:58:00,74.9,54.4,29.98,NW,306,5.8,5.8,49,0.00,CLR,,0.00,30.0,WeatherDisplay:10.37,2013-06-15 23:58:00,
2013-06-15 20:03:00,74.7,54.8,29.98,WNW,296,4.6,4.6,50,0.00,CLR,,0.00,25.0,WeatherDisplay:10.37,2013-06-16 00:03:00,
2013-06-15 20:08:00,74.5,54.6,29.98,NW,309,5.8,5.8,50,0.00,CLR,,0.00,21.0,WeatherDisplay:10.37,2013-06-16 00:08:00,
2013-06-15 20:13:00,74.1,54.8,29.98,NW,304,4.6,4.6,51,0.00,CLR,,0.00,18.0,WeatherDisplay:10.37,2013-06-16 00:13:00,
2013-06-15 20:18:00,73.8,55.1,29.98,NW,304,5.8,5.8,52,0.00,CLR,,0.00,12.0,WeatherDisplay:10.37,2013-06-16 00:18:00,
2013-06-15 20:23:00,73.5,55.3,29.98,WNW,299,4.0,4.0,53,0.00,CLR,,0.00,11.0,WeatherDisplay:10.37,2013-06-16 00:23:00,
2013-06-15 20:28:00,73.3,55.1,29.98,WNW,302,3.5,3.5,53,0.00,CLR,,0.00,7.0,WeatherDisplay:10.37,2013-06-16 00:28:00,
2013-06-15 20:33:00,73.1,54.9,29.98,NW,306,4.6,4.6,53,0.00,CLR,,0.00,0.0,WeatherDisplay:10.37,2013-06-16 00:33:00,
2013-06-15 20:38:00,73.0,54.9,29.98,NW,306,3.5,3.5,53,0.00,CLR,,0.00,0.0,WeatherDisplay:10.37,2013-06-16 00:38:00,
2013-06-15 20:43:00,72.9,54.8,29.98,NW,306,3.5,3.5,53,0.00,CLR,,0.00,0.0,WeatherDisplay:10.37,2013-06-16 00:43:00,
2013-06-15 20:48:00,72.9,54.8,29.98,NW,306,3.5,3.5,53,0.00,CLR,,0.00,0.0,WeatherDisplay:10.37,2013-06-16 00:48:00,
2013-06-15 20:53:00,72.8,54.1,29.98,NW,306,3.5,3.5,52,0.00,CLR,,0.00,0.0,WeatherDisplay:10.37,2013-06-16 00:53:00,
2013-06-15 20:58:00,72.7,54.6,29.97,NW,306,2.3,2.3,53,0.00,CLR,,0.00,0.0,WeatherDisplay:10.37,2013-06-16 00:58:00,
2013-06-15 21:03:00,72.5,54.4,29.98,NW,306,2.3,2.3,53,0.00,CLR,,0.00,0.0,WeatherDisplay:10.37,2013-06-16 01:03:00,
2013-06-15 21:08:00,72.3,54.7,29.98,NW,306,1.2,1.2,54,0.00,CLR,,0.00,0.0,WeatherDisplay:10.37,2013-06-16 01:08:00,
2013-06-15 21:13:00,71.9,55.8,29.98,NW,306,1.2,1.2,57,0.00,CLR,,0.00,0.0,WeatherDisplay:10.37,2013-06-16 01:13:00,
2013-06-15 21:18:00,71.3,55.3,29.98,NW,306,0.0,0.0,57,0.00,CLR,,0.00,0.0,WeatherDisplay:10.37,2013-06-16 01:18:00,
2013-06-15 21:23:00,70.8,55.3,29.98,NW,306,1.0,1.0,58,0.00,CLR,,0.00,0.0,WeatherDisplay:10.37,2013-06-16 01:23:00,
2013-06-15 21:28:00,70.5,55.0,29.99,NW,306,0.0,0.0,58,0.00,CLR,,0.00,0.0,WeatherDisplay:10.37,2013-06-16 01:28:00,
2013-06-15 21:33:00,70.2,55.2,29.99,WSW,249,0.0,0.0,59,0.00,CLR,,0.00,0.0,WeatherDisplay:10.37,2013-06-16 01:33:00,
2013-06-15 21:38:00,70.0,55.0,29.99,WSW,249,0.0,0.0,59,0.00,CLR,,0.00,0.0,WeatherDisplay:10.37,2013-06-16 01:38:00,
2013-06-15 21:43:00,69.7,54.7,29.99,WSW,249,0.0,0.0,59,0.00,CLR,,0.00,0.0,WeatherDisplay:10.37,2013-06-16 01:43:00,
2013-06-15 21:48:00,69.4,54.9,29.99,WSW,249,0.0,0.0,60,0.00,CLR,,0.00,0.0,WeatherDisplay:10.37,2013-06-16 01:48:00,
2013-06-15 21:53:00,69.1,54.6,29.99,WSW,249,0.0,0.0,60,0.00,CLR,,0.00,0.0,WeatherDisplay:10.37,2013-06-16 01:53:00,
2013-06-15 21:58:00,68.9,54.9,29.99,WSW,249,0.0,0.0,61,0.00,CLR,,0.00,0.0,WeatherDisplay:10.37,2013-06-16 01:58:00,
2013-06-15 22:03:00,68.8,54.8,29.99,WSW,249,0.0,0.0,61,0.00,CLR,,0.00,0.0,WeatherDisplay:10.37,2013-06-16 02:03:00,
2013-06-15 22:08:00,68.5,55.0,29.99,WSW,249,0.0,0.0,62,0.00,CLR,,0.00,0.0,WeatherDisplay:10.37,2013-06-16 02:08:00,
2013-06-15 22:13:00,68.2,56.0,29.99,WSW,249,0.0,0.0,65,0.00,CLR,,0.00,0.0,WeatherDisplay:10.37,2013-06-16 02:13:00,
2013-06-15 22:18:00,67.9,56.1,29.99,WSW,249,0.0,0.0,66,0.00,CLR,,0.00,0.0,WeatherDisplay:10.37,2013-06-16 02:18:00,
2013-06-15 22:23:00,67.6,56.2,29.99,WSW,249,0.0,0.0,67,0.00,CLR,,0.00,0.0,WeatherDisplay:10.37,2013-06-16 02:23:00,
2013-06-15 22:28:00,67.2,55.5,29.99,WSW,249,0.0,0.0,66,0.00,CLR,,0.00,0.0,WeatherDisplay:10.37,2013-06-16 02:28:00,
2013-06-15 22:33:00,66.7,55.0,29.99,WSW,249,0.0,0.0,66,0.00,CLR,,0.00,0.0,WeatherDisplay:10.37,2013-06-16 02:33:00,
2013-06-15 22:38:00,66.5,54.4,29.99,WSW,249,0.0,0.0,65,0.00,CLR,,0.00,0.0,WeatherDisplay:10.37,2013-06-16 02:38:00,
2013-06-15 22:43:00,66.3,54.6,29.99,WSW,249,0.0,0.0,66,0.00,CLR,,0.00,0.0,WeatherDisplay:10.37,2013-06-16 02:43:00,
2013-06-15 22:48:00,66.4,54.3,29.99,WSW,249,0.0,0.0,65,0.00,CLR,,0.00,0.0,WeatherDisplay:10.37,2013-06-16 02:48:00,
2013-06-15 22:53:00,66.3,54.2,29.99,WSW,249,0.0,0.0,65,0.00,CLR,,0.00,0.0,WeatherDisplay:10.37,2013-06-16 02:53:00,
2013-06-15 22:58:00,66.2,54.9,29.99,WSW,249,0.0,0.0,67,0.00,CLR,,0.00,0.0,WeatherDisplay:10.37,2013-06-16 02:58:00,
2013-06-15 23:03:00,66.0,54.3,29.99,WSW,252,0.0,0.0,66,0.00,CLR,,0.00,0.0,WeatherDisplay:10.37,2013-06-16 03:03:00,
2013-06-15 23:08:00,65.9,54.2,29.99,WSW,252,0.0,0.0,66,0.00,CLR,,0.00,0.0,WeatherDisplay:10.37,2013-06-16 03:08:00,
2013-06-15 23:13:00,66.0,54.7,29.99,WSW,252,0.0,0.0,67,0.00,CLR,,0.00,0.0,WeatherDisplay:10.37,2013-06-16 03:13:00,
2013-06-15 23:18:00,65.9,55.0,29.99,WSW,252,0.0,0.0,68,0.00,CLR,,0.00,0.0,WeatherDisplay:10.37,2013-06-16 03:18:00,
2013-06-15 23:23:00,65.7,56.4,29.99,WSW,252,0.0,0.0,72,0.00,CLR,,0.00,0.0,WeatherDisplay:10.37,2013-06-16 03:23:00,
2013-06-15 23:28:00,65.2,56.7,29.99,WSW,252,0.0,0.0,74,0.00,CLR,,0.00,0.0,WeatherDisplay:10.37,2013-06-16 03:28:00,
2013-06-15 23:33:00,64.9,56.4,29.99,WSW,252,0.0,0.0,74,0.00,CLR,,0.00,0.0,WeatherDisplay:10.37,2013-06-16 03:33:00,
2013-06-15 23:38:00,64.5,55.7,29.99,WSW,252,0.0,0.0,73,0.00,CLR,,0.00,0.0,WeatherDisplay:10.37,2013-06-16 03:38:00,
2013-06-15 23:43:00,64.3,56.2,29.99,WSW,252,0.0,0.0,75,0.00,CLR,,0.00,0.0,WeatherDisplay:10.37,2013-06-16 03:43:00,
2013-06-15 23:48:00,64.0,55.9,29.99,WSW,252,0.0,0.0,75,0.00,CLR,,0.00,0.0,WeatherDisplay:10.37,2013-06-16 03:48:00,
2013-06-15 23:53:00,63.7,55.6,29.99,WSW,252,0.0,0.0,75,0.00,CLR,,0.00,0.0,WeatherDisplay:10.37,2013-06-16 03:53:00,
2013-06-15 23:58:00,63.5,56.2,29.99,WSW,252,0.0,0.0,77,0.00,CLR,,0.00,0.0,WeatherDisplay:10.37,2013-06-16 03:58:00,